User: anonymous   Login
Location: Unspecified
(0.0000°N, 0.0000°E)
Time: 03:33:06
(UTC+02:00)
Language:

SWIFT - Orbit

View from above orbital plane
View from above orbital plane
View from above satellite
View from above satellite

Ground track
Ground track

The orbit data is extracted from the following two-line orbital elements,

1 28485U 04047A   15241.74338723  .00002488  00000-0  15157-3 0  9996
2 28485 020.5583 046.5026 0011614 220.4298 139.5272 15.02081388589158
Epoch (UTC): 29 August 2015 17:50:28
Eccentricity: 0.0011614
inclination: 20.5583°
perigee height: 552 km
apogee height: 568 km
right ascension of ascending node: 46.5026°
argument of perigee: 220.4298°
revolutions per day: 15.02081388
mean anomaly at epoch: 139.5272°
orbit number at epoch: 58915

The dashed part of the orbit path shows where the satellite is in the earth's shadow,  

DLR